Location: Austin
(30.3000°N, 97.7500°W)
Time: 21:47:11
(UTC-06:00)

Delta 128 - Pass Details

Date: 03 December 2025
Orbit: 607 x 1204 km, 28.0° (Epoch: 07 December)

Event Time Altitude Azimuth Distance (km) Brightness Sun altitude
Exits shadow 06:16:46 11° 259° (W) 2,388 6.0 -11.8°
Maximum altitude 06:22:19 69° 178° (S) 800 4.2 -10.7°
Drops below altitude 10° 06:27:14 10° 95° (E) 2,113 7.7 -9.7°
Sets 06:29:28 0° 93° (E) 2,968 8.7 -9.2°
